Date String (YYYY-MM-DD hh:mm:ss) UTC,Instrument flags,Ambient pressure (hPa),Sample flow (lpm),Bypass flow (lpm),Sample temperature (°C),Ambient temperature (°C),ASC tube jacket temperature (°C),LED temperature (°C),Box temperature (°C),Sample RH (%),Mass concentration (μg/m³),Mass concentration (μg/m³)
DateTimeUTC,F1_M11,P_M11,Q1_M11,Q2_M11,T1_M11,T2_M11,T3_M11,T4_M11,T5_M11,U1_M11,X0_M11,X2_M11
2021-08-12 03:00:00,FlowAlarm;OPCInstrumentWarning,0827.9,4.99,0.00,29.1,28.3,00.0,38.1,31.1,17.6,0049.68,0030.24
2021-08-12 03:01:00,FlowAlarm;OPCInstrumentWarning,0827.9,5.01,0.00,29.1,28.4,00.0,38.2,31.2,17.7,0049.77,0030.23
2021-08-12 03:02:00,FlowAlarm;OPCInstrumentWarning,0827.9,4.99,0.00,29.2,28.6,00.0,38.2,31.3,17.4,0049.40,0030.27
2021-08-12 03:03:00,FlowAlarm;OPCInstrumentWarning,0827.9,5.01,0.00,29.3,28.7,00.0,38.2,31.4,17.5,0048.96,0030.19
2021-08-12 03:04:00,FlowAlarm;OPCInstrumentWarning,0827.8,4.99,0.00,29.3,28.6,00.0,38.3,31.3,18.2,0049.28,0030.10
2021-08-12 03:05:00,FlowAlarm;OPCInstrumentWarning,0827.9,5.02,0.00,29.3,27.0,00.0,38.3,31.0,17.9,0049.33,0030.10
2021-08-12 03:06:00,FlowAlarm;OPCInstrumentWarning,0827.9,5.00,0.00,29.1,25.5,00.0,38.2,30.6,18.2,0050.20,0030.09
2021-08-12 03:07:00,FlowAlarm;OPCInstrumentWarning,0827.9,5.00,0.00,29.0,25.5,00.0,38.2,30.5,18.5,0050.81,0030.07
2021-08-12 03:08:00,FlowAlarm;OPCInstrumentWarning,0827.9,4.99,0.00,28.9,26.0,00.0,38.2,30.6,18.6,0050.21,0030.00
2021-08-12 03:09:00,FlowAlarm;OPCInstrumentWarning,0827.9,5.01,0.00,28.8,26.5,00.0,38.1,30.7,18.4,0049.17,0029.86
2021-08-12 03:10:00,FlowAlarm;OPCInstrumentWarning,0827.8,5.00,0.00,28.9,26.9,00.0,38.1,30.8,18.0,0047.71,0029.85
2021-08-12 03:11:00,FlowAlarm;OPCInstrumentWarning,0827.9,4.99,0.00,28.9,27.3,00.0,38.1,30.8,18.2,0047.02,0029.88
2021-08-12 03:12:00,FlowAlarm;OPCInstrumentWarning,0827.9,5.00,0.00,28.9,27.6,00.0,38.1,30.9,18.5,0046.57,0029.80
2021-08-12 03:13:00,FlowAlarm;OPCInstrumentWarning,0827.9,5.01,0.00,29.0,27.9,00.0,38.1,31.0,18.2,0046.34,0029.75
2021-08-12 03:14:00,FlowAlarm;OPCInstrumentWarning,0827.9,4.99,0.00,29.0,28.1,00.0,38.1,31.1,17.7,0046.65,0029.78
2021-08-12 03:15:00,FlowAlarm;OPCInstrumentWarning,0827.9,5.00,0.00,29.1,28.3,00.0,38.2,31.2,17.9,0045.39,0029.75
2021-08-12 03:16:00,FlowAlarm;OPCInstrumentWarning,0827.9,5.01,0.00,29.1,28.4,00.0,38.2,31.2,17.4,0045.78,0029.78
2021-08-12 03:17:00,FlowAlarm;OPCInstrumentWarning,0827.9,4.99,0.00,29.2,28.5,00.0,38.2,31.3,18.0,0045.91,0029.69
2021-08-12 03:18:00,FlowAlarm;OPCInstrumentWarning,0828.0,5.01,0.00,29.3,28.7,00.0,38.3,31.3,17.6,0046.34,0029.64
2021-08-12 03:19:00,FlowAlarm;OPCInstrumentWarning,0827.9,4.99,0.00,29.3,27.7,00.0,38.3,31.1,17.0,0045.79,0029.61
2021-08-12 03:20:00,FlowAlarm;OPCInstrumentWarning,0827.9,5.00,0.00,29.2,25.7,00.0,38.2,30.7,17.2,0045.21,0029.56
2021-08-12 03:21:00,FlowAlarm;OPCInstrumentWarning,0827.9,5.02,0.00,29.0,25.3,00.0,38.2,30.5,17.5,0044.80,0029.45
2021-08-12 03:22:00,FlowAlarm;OPCInstrumentWarning,0827.9,4.99,0.00,28.9,25.7,00.0,38.2,30.5,17.4,0044.64,0029.40
2021-08-12 03:23:00,FlowAlarm;OPCInstrumentWarning,0827.9,5.00,0.00,28.8,26.1,00.0,38.1,30.6,17.9,0043.92,0029.38
2021-08-12 03:24:00,FlowAlarm;OPCInstrumentWarning,0827.9,5.00,0.00,28.8,26.6,00.0,38.1,30.7,17.8,0042.94,0029.24
2021-08-12 03:25:00,FlowAlarm;OPCInstrumentWarning,0828.0,4.99,0.00,28.8,27.0,00.0,38.1,30.8,17.4,0042.62,0029.20
2021-08-12 03:26:00,FlowAlarm;OPCInstrumentWarning,0828.0,5.01,0.00,28.9,27.4,00.0,38.1,30.9,16.8,0042.39,0029.12
2021-08-12 03:27:00,FlowAlarm;OPCInstrumentWarning,0828.0,4.99,0.00,28.9,27.7,00.0,38.1,31.0,18.4,0041.77,0028.99
2021-08-12 03:28:00,FlowAlarm;OPCInstrumentWarning,0827.9,5.01,0.00,29.0,27.9,00.0,38.1,31.0,18.2,0041.47,0028.92
2021-08-12 03:29:00,FlowAlarm;OPCInstrumentWarning,0828.0,4.98,0.00,29.0,28.1,00.0,38.1,31.1,17.9,0040.72,0028.83
2021-08-12 03:30:00,FlowAlarm;OPCInstrumentWarning,0827.9,5.01,0.00,29.1,28.3,00.0,38.2,31.1,18.2,0040.70,0028.78
2021-08-12 03:31:00,FlowAlarm;OPCInstrumentWarning,0828.0,4.99,0.00,29.2,28.4,00.0,38.2,31.2,17.7,0040.59,0028.72
2021-08-12 03:32:00,FlowAlarm;OPCInstrumentWarning,0828.0,5.00,0.00,29.2,28.6,00.0,38.2,31.3,17.2,0040.17,0028.61
2021-08-12 03:33:00,FlowAlarm;OPCInstrumentWarning,0827.9,5.01,0.00,29.3,28.7,00.0,38.3,31.3,17.3,0039.92,0028.55
2021-08-12 03:34:00,FlowAlarm;OPCInstrumentWarning,0828.0,4.99,0.00,29.3,28.5,00.0,38.3,31.3,17.0,0040.99,0028.52
2021-08-12 03:35:00,FlowAlarm;OPCInstrumentWarning,0828.0,5.01,0.00,29.2,26.9,00.0,38.3,30.9,17.1,0043.02,0028.52
2021-08-12 03:36:00,FlowAlarm;OPCInstrumentWarning,0828.0,5.00,0.00,29.1,26.4,00.0,38.3,30.8,17.4,0043.06,0028.43
2021-08-12 03:37:00,FlowAlarm;OPCInstrumentWarning,0828.0,5.00,0.00,29.1,26.6,00.0,38.3,30.8,17.7,0043.32,0028.37
2021-08-12 03:38:00,FlowAlarm;OPCInstrumentWarning,0828.0,5.00,0.00,29.0,27.0,00.0,38.2,30.9,17.5,0044.09,0028.35
2021-08-12 03:39:00,FlowAlarm;OPCInstrumentWarning,0828.0,5.00,0.00,29.0,27.3,00.0,38.2,31.0,17.4,0043.45,0028.35
2021-08-12 03:40:00,FlowAlarm;OPCInstrumentWarning,0828.0,4.98,0.00,29.1,27.6,00.0,38.2,31.0,17.4,0043.28,0028.38
2021-08-12 03:41:00,FlowAlarm;OPCInstrumentWarning,0828.1,5.02,0.00,29.1,27.9,00.0,38.3,31.1,17.0,0043.78,0028.47
2021-08-12 03:42:00,FlowAlarm;OPCInstrumentWarning,0828.1,4.99,0.00,29.2,28.1,00.0,38.3,31.2,16.7,0044.07,0028.50
2021-08-12 03:43:00,FlowAlarm;OPCInstrumentWarning,0828.1,5.01,0.00,29.2,28.3,00.0,38.3,31.2,17.0,0044.13,0028.50
2021-08-12 03:44:00,FlowAlarm;OPCInstrumentWarning,0828.1,4.99,0.00,29.3,28.5,00.0,38.3,31.3,16.7,0044.26,0028.47
2021-08-12 03:45:00,FlowAlarm;OPCInstrumentWarning,0828.1,5.00,0.00,29.3,28.6,00.0,38.4,31.3,16.4,0043.80,0028.45
2021-08-12 03:46:00,FlowAlarm;OPCInstrumentWarning,0828.1,5.01,0.00,29.4,28.6,00.0,38.4,31.4,16.5,0042.15,0028.40
2021-08-12 03:47:00,FlowAlarm;OPCInstrumentWarning,0828.1,4.99,0.00,29.3,27.1,00.0,38.4,31.0,16.6,0042.83,0028.44
2021-08-12 03:48:00,FlowAlarm;OPCInstrumentWarning,0828.0,4.99,0.00,29.2,25.5,00.0,38.3,30.6,16.7,0043.62,0028.45
2021-08-12 03:49:00,FlowAlarm;OPCInstrumentWarning,0828.0,5.00,0.00,29.0,25.4,00.0,38.3,30.5,16.9,0042.30,0028.40
2021-08-12 03:50:00,FlowAlarm;OPCInstrumentWarning,0828.0,5.01,0.00,28.9,25.8,00.0,38.3,30.6,16.9,0041.85,0028.34
2021-08-12 03:51:00,FlowAlarm;OPCInstrumentWarning,0828.0,4.99,0.00,28.9,26.3,00.0,38.2,30.7,17.0,0042.00,0028.32
2021-08-12 03:52:00,FlowAlarm;OPCInstrumentWarning,0828.0,5.01,0.00,28.9,26.8,00.0,38.2,30.8,17.0,0041.56,0028.20
2021-08-12 03:53:00,FlowAlarm;OPCInstrumentWarning,0828.0,5.01,0.00,28.9,27.2,00.0,38.2,30.9,17.0,0041.93,0028.18
2021-08-12 03:54:00,FlowAlarm;OPCInstrumentWarning,0828.1,4.99,0.00,28.9,27.5,00.0,38.2,30.9,17.0,0042.45,0028.21
2021-08-12 03:55:00,FlowAlarm;OPCInstrumentWarning,0828.1,5.01,0.00,29.0,27.8,00.0,38.2,31.0,16.9,0042.44,0028.25
2021-08-12 03:56:00,FlowAlarm;OPCInstrumentWarning,0828.1,4.98,0.00,29.0,28.0,00.0,38.2,31.1,16.8,0041.96,0028.21
2021-08-12 03:57:00,FlowAlarm;OPCInstrumentWarning,0828.1,5.01,0.00,29.1,28.2,00.0,38.2,31.1,16.9,0041.64,0028.20
2021-08-12 03:58:00,FlowAlarm;OPCInstrumentWarning,0828.1,5.00,0.00,29.1,28.3,00.0,38.2,31.2,16.8,0040.76,0028.10
2021-08-12 03:59:00,FlowAlarm;OPCInstrumentWarning,0828.1,5.01,0.00,29.2,28.4,00.0,38.3,31.2,16.8,0040.09,0028.12
